• MPC Preparation (Info)

  • MPEC 2015-J58 : 2015 JP1

    The following Minor Planet Electronic Circular may be linked-to from your own Web pages, but must not otherwise be redistributed electronically.

    A form allowing access to any MPEC is at the bottom of this page.


    Read MPEC 2015-J57 Read MPEC 2015-J59


    M.P.E.C. 2015-J58                                Issued 2015 May 15, 22:20 UT
    
         The Minor Planet Electronic Circulars contain information on unusual
             minor planets and routine data on comets.  They are published
       on behalf of Commission 20 of the International Astronomical Union by the
              Minor Planet Center, Smithsonian Astrophysical Observatory,
                              Cambridge, MA 02138, U.S.A.
    
                 Prepared using the Tamkin Foundation Computer Network
    
                                  MPC@CFA.HARVARD.EDU
                URL https://www.minorplanetcenter.net/    ISSN 1523-6714
    
                                       2015 JP1
    
    Observations:
         K15J01P* C2015 05 13.34642 15 03 58.55 +20 43 33.3          19.5 VqEJ058703
         K15J01P  C2015 05 13.35150 15 03 55.75 +20 44 56.3          19.8 VqEJ058703
         K15J01P  C2015 05 13.35657 15 03 53.09 +20 46 20.3                qEJ058703
         K15J01P  C2015 05 13.36165 15 03 50.27 +20 47 42.8          19.9 VqEJ058703
         K15J01P  C2015 05 13.41540 15 03 21.50 +21 02 22.1          20.7 VqEJ058I52
         K15J01P  C2015 05 13.41569 15 03 21.37 +21 02 26.5          20.0 VqEJ058I52
         K15J01P  C2015 05 13.41599 15 03 21.19 +21 02 31.8          19.7 VqEJ058I52
         K15J01P  C2015 05 13.41629 15 03 20.99 +21 02 37.0          19.8 VqEJ058I52
         K15J01P tC2015 05 13.95081614 58 31.618+23 35 59.61         19.5 RqEJ058J04
         K15J01P tC2015 05 13.95360314 58 29.936+23 36 49.60         19.6 RqEJ058J04
         K15J01P tC2015 05 13.95639014 58 28.210+23 37 40.00         19.7 RqEJ058J04
         K15J01P tC2015 05 13.96138114 58 25.184+23 39 09.40         19.7 RqEJ058J04
         K15J01P KC2015 05 15.23396 14 43 45.96 +30 36 26.3          18.7 RqEJ058H36
         K15J01P KC2015 05 15.24038 14 43 40.48 +30 38 42.6          19.0 RqEJ058H36
         K15J01P KC2015 05 15.25640 14 43 27.03 +30 44 27.0          19.9 RqEJ058H36
         K15J01P KC2015 05 15.26282 14 43 21.55 +30 46 45.1          19.3 RqEJ058H36
         K15J01P KC2015 05 15.90118 14 33 54.97 +34 44 58.1          19.6 VqEJ058I93
         K15J01P KC2015 05 15.90729 14 33 48.86 +34 47 20.4          19.7 VqEJ058I93
         K15J01P KC2015 05 15.91457 14 33 41.55 +34 50 10.1          19.5 VqEJ058I93
    
    Observer details:
    703 Catalina Sky Survey.  Observer D. C. Fuls.  Measurers E. J. Christensen,
        D. C. Fuls, A. R. Gibbs, A. D. Grauer, R. E. Hill, J. A. Johnson,
        R. A. Kowalski, S. M. Larson, R. G. Matheny, F. C. Shelly.  0.68-m Schmidt
        + CCD.
    H36 Sandlot Observatory, Scranton.  Observer G. Hug.  0.56-m reflector + CCD.
    I52 Steward Observatory, Mt. Lemmon Station.  Observer R. E. Hill.  Measurers
        E. J. Christensen, D. C. Fuls, A. R. Gibbs, A. D. Grauer, R. E. Hill,
        J. A. Johnson, R. A. Kowalski, S. M. Larson, R. G. Matheny, F. C. Shelly.
        1.0-m reflector + CCD.
    I93 St Pardon de Conques.  Observer F. Losse.  0.40-m f/3.7 reflector + CCD.
    J04 ESA Optical Ground Station, Tenerife.  Observer D. Abreu.  Measurers
        M. Micheli, D. Koschny, M. Busch, A. Knoefel, E. Schwab.  1.0-m f/4.4
        reflector + CCD.
    
    Orbital elements:
    2015 JP1                                                 Earth MOID = 0.0795 AU
    Epoch 2015 June 27.0 TT = JDT 2457200.5                 MPC
    M 358.18798              (2000.0)            P               Q
    n   0.29826508     Peri.  151.39599     +0.97739511     +0.20834527
    a   2.2185426      Node   196.69462     -0.20985127     +0.93535502
    e   0.8297885      Incl.    7.18524     -0.02571463     +0.28583779
    P   3.30           H   22.6           G   0.15           U   7
    Residuals in seconds of arc
    150513 703  1.3+  0.5-    150513 I52  0.7-  0.2+    150515 H36  0.2+  0.2-
    150513 703  0.1+  0.3-    150513 J04  0.4-  0.3-    150515 H36  0.6-  0.1-
    150513 703  0.8+  1.0+    150513 J04  0.1-  0.4-    150515 I93  0.1-  0.0
    150513 703  0.6-  0.6+    150513 J04  0.5-  0.1-    150515 I93  0.1+  0.3-
    150513 I52  0.2-  0.1-    150513 J04  0.0   0.5-    150515 I93  0.3+  0.5-
    150513 I52  0.1+  0.5-    150515 H36  0.9+  0.9+
    150513 I52  0.1-  0.1-    150515 H36  0.3-  0.6-
    
    Ephemeris:
    2015 JP1                 a,e,i = 2.22, 0.83, 7                   q = 0.3776
    Date    TT    R. A. (2000) Decl.     Delta      r     Elong.  Phase     V
    2015 04 15    15 53 29.8 -13 33 57   0.5800  1.5145   144.8    22.4    23.4
    ...
    2015 04 30    15 47 37.7 -06 25 04   0.3214  1.3116   158.6    16.3    21.6
    ...
    2015 05 08    15 32 09.9 +04 07 13   0.2000  1.1961   157.3    19.0    20.5
    ...
    2015 05 14    14 58 01.1 +23 50 38   0.1252  1.1058   137.3    38.3    19.8
    2015 05 15    14 46 49.9 +29 13 59   0.1157  1.0905   131.2    44.2    19.8
    2015 05 16    14 32 16.4 +35 23 25   0.1078  1.0750   124.0    51.2    19.8
    ...
    2015 05 22    09 33 19.8 +67 47 29   0.1049  0.9804    69.5   104.8    21.5
    ...
    2015 05 30    05 25 26.4 +47 32 58   0.1930  0.8492    28.6   145.2    26.3
    ...
    2015 06 14    04 41 15.3 +31 31 15   0.4420  0.5937    13.1   157.2    29.8
    
    A. U. Tomatic                (C) Copyright 2015 MPC           M.P.E.C. 2015-J58
    

    Read MPEC 2015-J57 Read MPEC 2015-J59


    MPEC number:

    Enter an MPEC number in one of the following forms:

    • 1997-B01 (the full form)
    • J97B01 (the packed version of the full form)
    • B01 (the abbreviated form)